| time (UTC) | temp C | wind direction | speed KPH | gust KPH | rain 1hr cm | rain 24hr cm | rain mn cm | humidity % | barometer mb |
| 20260504000346 | 18 | 1 | 9.7 | 12.9 | 0.00 | 0.00 | 0.00 | 85 | 1016.0 |
| 20260503233349 | 18 | 67 | 8.0 | 16.1 | 0.00 | 0.00 | 0.00 | 88 | 1016.0 |
| 20260503230349 | 18 | 101 | 4.8 | 9.7 | 0.00 | 0.00 | 0.00 | 89 | 1016.2 |
| 20260503223349 | 19 | 75 | 3.2 | 4.8 | 0.00 | 0.00 | 0.00 | 85 | 1016.4 |
| 20260503220349 | 19 | 37 | 12.9 | 16.1 | 0.00 | 0.00 | 0.00 | 85 | 1015.9 |
| 20260503213349 | 20 | 30 | 11.3 | 19.3 | 0.00 | 0.00 | 0.00 | 82 | 1015.4 |
| 20260503210349 | 19 | 31 | 11.3 | 16.1 | 0.00 | 0.00 | 0.00 | 83 | 1015.1 |
| 20260503203349 | 19 | 54 | 8.0 | 11.3 | 0.00 | 0.00 | 0.00 | 83 | 1015.1 |
| 20260503200349 | 19 | 40 | 4.8 | 9.7 | 0.00 | 0.00 | 0.00 | 83 | 1015.0 |
| 20260503193349 | 19 | 56 | 8.0 | 14.5 | 0.00 | 0.00 | 0.00 | 85 | 1015.1 |
| 20260503190349 | 19 | 54 | 9.7 | 11.3 | 0.00 | 0.00 | 0.00 | 85 | 1015.3 |
| 20260503183348 | 19 | 26 | 1.6 | 3.2 | 0.00 | 0.00 | 0.00 | 84 | 1015.5 |
| 20260503180348 | 19 | 332 | 4.8 | 8.0 | 0.00 | 0.00 | 0.00 | 82 | 1015.5 |
| 20260503173345 | 18 | 83 | 0.0 | 0.0 | 0.00 | 0.00 | 0.00 | 84 | 1015.5 |
| 20260503170350 | 19 | 35 | 8.0 | 19.3 | 0.00 | 0.00 | 0.00 | 84 | 1015.2 |
| 20260503150350 | 19 | 8 | 8.0 | 12.9 | 0.00 | 0.00 | 0.00 | 86 | 1016.1 |
| 20260503130349 | 20 | 312 | 11.3 | 19.3 | 0.00 | 0.00 | 0.00 | 81 | 1016.6 |
| 20260503110348 | 20 | 320 | 1.6 | 1.6 | 0.00 | 0.00 | 0.00 | 83 | 1017.5 |
| 20260503090347 | 21 | 44 | 19.3 | 20.9 | 0.00 | 0.00 | 0.00 | 84 | 1017.2 |
| 20260503080346 | 21 | 46 | 16.1 | 22.5 | 0.00 | 0.00 | 0.00 | 83 | 1017.0 |
| 20260503070346 | 21 | 46 | 9.7 | 11.3 | 0.00 | 0.00 | 0.00 | 82 | 1017.2 |
| 20260503053346 | 22 | 36 | 20.9 | 32.2 | 0.00 | 0.00 | 0.00 | 78 | 1017.7 |
| 20260503050346 | 22 | 30 | 12.9 | 20.9 | 0.00 | 0.00 | 0.00 | 78 | 1017.9 |
| 20260503043346 | 23 | 48 | 12.9 | 20.9 | 0.00 | 0.00 | 0.00 | 76 | 1018.0 |
| 20260503040345 | 22 | 40 | 16.1 | 22.5 | 0.00 | 0.00 | 0.00 | 76 | 1018.2 |
| 20260503033348 | 22 | 45 | 14.5 | 27.4 | 0.00 | 0.00 | 0.00 | 76 | 1018.5 |
| 20260503030348 | 22 | 56 | 16.1 | 22.5 | 0.00 | 0.00 | 0.00 | 76 | 1019.1 |
| 20260503023348 | 22 | 66 | 20.9 | 32.2 | 0.00 | 0.00 | 0.00 | 75 | 1019.3 |
| 20260503020348 | 22 | 60 | 19.3 | 27.4 | 0.00 | 0.00 | 0.00 | 73 | 1019.7 |
| 20260503013348 | 22 | 51 | 22.5 | 32.2 | 0.00 | 0.00 | 0.00 | 71 | 1020.2 |
| 20260503010347 | 22 | 36 | 8.0 | 14.5 | 0.00 | 0.00 | 0.00 | 66 | 1020.6 |
| 20260503003347 | 22 | 31 | 16.1 | 29.0 | 0.00 | 0.00 | 0.00 | 67 | 1020.6 |